#timestamp,LO_Frequency,Hit,StdDev 
1709434815.5,286047001.0,N
1709434835.3,286046995.3,N
1709434855.1,286046994.7,N
1709434875.9,286046988.9,N
1709434895.7,286046985.3,N
1709434915.6,286046983.3,N
1709434935.4,286046977.7,N
1709434955.2,286046976.7,N
1709434975.1,286046973.1,N
1709434976.0,286046973.1,N
1709434995.8,286046968.6,N
1709435015.6,286046970.8,N
1709435035.5,286046963.4,N
1709435055.3,286046964.7,N
1709435075.1,286046965.6,N
1709435095.9,286046963.8,N
1709435115.7,286046963.5,N
1709435135.6,286046968.8,N
1709435155.4,286046968.0,N
1709435175.2,286046970.4,N
1709435195.1,286046967.8,N
1709435196.0,286046967.8,N
1709435215.8,286046969.4,N
1709435235.6,286046974.0,N
1709435255.5,286046971.7,N
1709435275.3,286046969.5,N
1709435295.2,286046969.2,N
1709435315.9,286046963.7,N
1709435335.7,286046959.9,Y
1709435355.6,286046984.3,P
1709435375.4,286046984.2,P
1709435395.3,286046989.7,N
1709435415.1,286046988.1,N
1709435416.0,286046988.1,N
1709435435.8,286046985.9,Y
1709435455.7,286046999.7,P
1709435475.5,286046999.7,N
1709435495.3,286047000.2,N
1709435515.2,286047001.2,N
1709435535.0,286046999.4,N
1709435535.9,286046999.4,N
1709435555.8,286046995.3,N
1709435575.6,286046994.3,N
1709435595.4,286046988.8,N
1709435615.3,286046987.8,N
1709435635.1,286046986.1,N
1709435655.9,286046986.7,N
1709435675.7,286046982.1,N
1709435695.5,286046979.4,Y
1709435715.4,286046983.7,P
1709435735.2,286046986.8,N
1709435755.0,286046982.0,P
1709435755.9,286046982.0,Y
1709435775.8,286046994.4,P
1709435795.6,286046992.7,N
1709435815.5,286046991.1,N
1709435835.3,286046990.5,Y
1709435855.1,286046999.6,P
1709435875.9,286046999.0,N
1709435895.7,286046995.7,N
1709435915.5,286046995.7,N
1709435935.4,286046997.6,N
1709435955.2,286046993.6,N
1709435975.1,286046993.6,N
1709435976.0,286046993.6,N
1709435995.8,286046993.5,N
1709436015.6,286046992.8,N
1709436035.5,286046990.9,Y
1709436055.3,286046996.0,P
1709436075.2,286046996.2,P
1709436095.9,286046994.0,P
1709436115.7,286046994.3,Y
1709436135.6,286046996.7,P
1709436155.4,286046998.5,N
1709436175.2,286047002.8,N
1709436195.1,286046999.1,N
1709436196.0,286046999.1,N
1709436215.8,286046995.1,N
1709436235.7,286046997.6,N
1709436255.5,286046997.9,N
1709436275.3,286046997.5,N
1709436295.2,286046993.5,Y
1709436315.0,286046996.6,P
1709436315.9,286046996.6,P
1709436335.7,286046999.8,N
1709436355.6,286047001.7,N
1709436375.4,286047000.0,N
1709436395.3,286047004.1,N
1709436415.1,286047006.9,N
1709436416.0,286047006.9,N
1709436435.8,286047008.4,N
1709436455.7,286047010.2,N
1709436475.5,286047009.4,N
1709436495.4,286047011.0,N
1709436515.2,286047010.5,N
1709436535.0,286047006.4,N
1709436535.9,286047006.4,N
1709436555.8,286047003.8,N
1709436575.6,286047003.9,N
1709436595.4,286047000.9,N
1709436615.3,286046997.3,N
1709436635.1,286046992.3,N
1709436655.9,286046991.0,N
1709436675.7,286046993.8,N
1709436695.5,286046995.2,N
1709436715.4,286046995.3,N
1709436735.2,286046997.8,N
1709436755.1,286046995.0,N
1709436756.0,286046995.0,N
1709436775.8,286046995.5,N
1709436795.6,286046993.4,N
1709436815.5,286046991.7,N
1709436835.3,286046994.1,N
1709436855.1,286046997.9,N
1709436875.9,286046999.6,N
1709436895.7,286046995.5,N
1709436915.6,286046996.4,N
1709436935.4,286046992.4,N
1709436955.2,286046988.6,N
1709436975.1,286046989.6,N
1709436976.0,286046989.6,N
1709436995.8,286046991.1,N
1709437015.7,286046991.1,N
1709437035.5,286046989.8,N
1709437055.3,286046988.4,N
1709437075.2,286046985.8,N
1709437095.0,286046985.4,Y
1709437095.9,286046985.4,P
1709437115.8,286046992.9,N
1709437135.6,286046992.9,N
1709437155.4,286046994.5,N
1709437175.3,286046995.2,N
1709437195.1,286046999.5,N
1709437215.8,286046996.6,N
1709437235.7,286047001.1,N
1709437255.5,286046999.9,N
1709437275.4,286047002.2,N
1709437295.2,286047004.6,N
1709437315.0,286047011.5,N
1709437315.9,286047011.5,N
1709437335.8,286047015.0,N
1709437355.6,286047012.7,N
1709437375.5,286047009.3,N
1709437395.3,286047010.4,N
1709437415.1,286047010.3,N
1709437435.9,286047009.6,N
1709437455.7,286047013.9,N
1709437475.5,286047009.8,N
1709437495.4,286047009.0,N
1709437515.2,286047006.6,N
1709437535.1,286047006.3,N
1709437536.0,286047006.3,N
1709437555.8,286047006.4,N
1709437575.6,286047008.8,N
1709437595.5,286047006.2,N
1709437615.3,286047004.4,N
1709437635.1,286047004.3,N
1709437655.9,286046999.9,N
1709437675.7,286046998.1,N
1709437695.6,286047000.9,N
1709437715.4,286047001.9,N
1709437735.2,286047002.8,N
1709437755.1,286047002.5,N
1709437756.0,286047002.5,N
1709437775.8,286047006.8,N
1709437795.6,286047008.2,N
1709437815.5,286047010.8,N
1709437835.3,286047011.0,N
1709437855.2,286047013.6,Y
1709437875.9,286047001.6,P
1709437895.7,286047001.0,N
1709437915.6,286046997.0,N
1709437935.4,286046995.8,N
1709437955.3,286046993.3,N
1709437975.1,286046993.0,N
1709437976.0,286046993.0,N
1709437995.8,286046989.4,N
1709438015.7,286046987.2,N
1709438035.5,286046987.6,N
1709438055.3,286046986.8,N
1709438075.2,286046983.7,N
1709438095.0,286046986.6,N
1709438095.9,286046986.6,N
1709438115.8,286046986.3,N
1709438135.6,286046984.0,N
1709438155.4,286046986.7,N
1709438175.3,286046986.7,N
1709438195.1,286046985.5,N
1709438215.8,286046984.2,N
1709438235.7,286046983.3,N
1709438255.5,286046980.9,N
1709438275.4,286046983.0,N
1709438295.2,286046983.6,N
1709438315.0,286046980.8,N
1709438315.9,286046980.8,N
1709438335.8,286046981.7,N
1709438355.6,286046981.1,N
1709438375.4,286046982.9,N
1709438395.3,286046981.4,N
